Regional Weather Roundup
Issued by NWS Mt. Holly, NJ

Home | Current Version | Previous Version | Text Only | Print | Product List | Glossary On
Versions: 1 2 3 4 5 6 7 8 9 10 11 12 13 14 15 16 17 18 19 20 21 22 23 24 25 26 27 28
000
ASUS41 KPHI 260413
RWRPHI

REGIONAL WEATHER ROUNDUP
NATIONAL WEATHER SERVICE MOUNT HOLLY NJ
1200 AM EDT THU APR 26 2018

NOTE:  "FAIR" INDICATES FEW OR NO CLOUDS BELOW 12,000 FEET WITH NO
SIGNIFICANT WEATHER AND/OR OBSTRUCTIONS TO VISIBILITY.

 * = STATION DOES NOT REPORT PRECIPITATION (E.G. RAIN, SNOW, ETC.)
        OR FOG.

NJZ015>026-260500-
SOUTHERN NEW JERSEY

CITY           SKY/WX    TMP DP  RH WIND       PRES   REMARKS
POMONA         RAIN      55  55 100 CALM      29.65S FOG
WILDWOOD*      CLOUDY    58  57  97 W12G17    29.66F FOG
MILLVILLE      CLOUDY    62  58  86 NW7       29.65S
WRIGHTSTOWN    CLOUDY    59  59 100 W3        29.62F
MOUNT HOLLY    LGT RAIN  60  60 100 NW3       29.65F
TRENTON        CLOUDY    60  58  92 W3        29.64F FOG

$$
NJZ001>014-260500-
NORTHERN NEW JERSEY

CITY           SKY/WX    TMP DP  RH WIND       PRES   REMARKS
SUSSEX         FOG       56  56 100 CALM      29.65F VSB 1
ANDOVER*         N/A     56  56 100 CALM      29.64F
MORRISTOWN     CLOUDY    57  57 100 CALM      29.64F FOG
NEWARK         HVY RAIN  55  54  96 CALM      29.64F FOG
TETERBORO      LGT RAIN  57  56  96 CALM      29.63F VSB 1
CALDWELL       CLOUDY    57  57 100 CALM      29.65F FOG
SOMERVILLE     FOG       57  57 100 CALM      29.62F VSB 3/4
ALLAIRE*       CLOUDY    53  53 100 S3        29.66F FOG
TOMS RIVER*    LGT RAIN  55  55 100 CALM      29.65S VSB 3/4

$$
PAZ043-044-047-054-055-060>062-066>071-260500-
EASTERN PENNSYLVANIA

CITY           SKY/WX    TMP DP  RH WIND       PRES   REMARKS
PHILADELPHIA   CLOUDY    61  57  87 NW6       29.66F
NORTH PHILA    CLOUDY    63  57  81 NW5       29.66F
BLUE BELL*     FAIR      55  55 100 CALM      29.67F
DOYLESTOWN     CLOUDY    59  57  93 NW5       29.64F
QUAKERTOWN*    MOCLDY    57  57 100 NW6       29.66F
PERKASIE*      MOCLDY    57  57 100 NW7       29.67F
POTTSTOWN      FAIR      57  57 100 W3        29.68F FOG
LANCASTER      MOCLDY    57  54  89 NW9       29.70S
COATESVILLE    FAIR      57  55  94 NW12      29.69F
READING        FAIR      58  57  97 W7        29.68F
ALLENTOWN      CLOUDY    58  54  86 W6        29.66F
MOUNT POCONO   LGT RAIN  51  51 100 NW9       29.67F
HAZLETON       CLOUDY    54  52  94 W7        29.72F FOG
LEHIGHTON      CLOUDY    55  54  94 CALM      29.68F
WILKES BARRE   CLOUDY    56  54  93 CALM      29.69S

$$
DEZALL-MDZ008-012-015-019-020-260500-
DELAWARE AND EASTERN MARYLAND

CITY           SKY/WX    TMP DP  RH WIND       PRES   REMARKS
WILMINGTON     FAIR      59  56  89 NW7       29.67F
DOVER          CLOUDY    61  58  89 W8        29.67S
GEORGETOWN     CLOUDY    62  59  90 NW5       29.68S
ABERDEEN       FAIR      58  55  89 W5        29.70S
PATUXENT       FAIR      59  57  93 W7        29.72
OCEAN CITY     LGT RAIN  61  61 100 NW7       29.67F
WALLOPS ISLAND MOCLDY    61  60  97 NW9       29.69S
CAMBRIDGE      MOCLDY    59  57  94 W5        29.71S
SALISBURY      CLOUDY    61  60  97 W7        29.69S

$$
PAZ001-021-NYZ056-072-MDZ011-DCZ001-260500-
OTHER NEARBY LOCATIONS

CITY           SKY/WX    TMP DP  RH WIND       PRES   REMARKS
HARRISBURG     MOCLDY    58  50  75 NW10      29.71S
STATE COLLEGE  FAIR      47  37  68 W14G25    29.80R
WILLIAMSPORT   CLOUDY    56  48  74 W9        29.72S
BINGHAMTON     CLOUDY    49  48  97 NW7       29.69S
NEW YORK CITY  CLOUDY    56  54  93 CALM      29.66  FOG
BALTIMORE      FAIR      56  56 100 W7        29.72S
WASHINGTON DC  FAIR      62  52  69 NW13      29.75R

$$




USA.gov is the U.S. government's official web portal to all federal, state and local government web resources and services.